Weather History for KPUW - November, 2013

Change the Weather History Date:

Sunday, November 3, 2013

  Actual Average Record
Temperature  
Mean Temperature 35 °F 41 °F  
Max Temperature 40 °F 49 °F 66 °F (1949)
Min Temperature 30 °F 33 °F 10 °F (1973)
Degree Days  
Heating Degree Days 30 24  
Month to date heating degree days 73 70  
Since 1 July heating degree days 910 976  
Cooling Degree Days 0 0  
Month to date cooling degree days 0 0  
Year to date cooling degree days 334 213  
Moisture  
Dew Point 31 °F    
Average Humidity 81    
Maximum Humidity 92    
Minimum Humidity 70    
Precipitation  
Precipitation 0.14 in 0.07 in 0.96 in (1959)
Month to date precipitation 0.32 0.20  
Year to date precipitation 12.01 13.23  
Sea Level Pressure  
Sea Level Pressure 29.97 in    
Wind  
Wind Speed 11 mph (SW)    
Max Wind Speed 25 mph    
Max Gust Speed 35 mph    
Visibility 7 miles    
Events Fog , Rain , Snow    
T = Trace of Precipitation, MM = Missing Value Source: NWS Daily Summary

Daily Weather History Graph

Daily Weather History Graph

Search for Another Location

Airport or City:

Trip Planner

Search our weather history database for the weather conditions in past years. The results will help you decide how hot, cold, wet, or windy it might be!

Date:

Astronomy

Nov. 03, 2013 Rise Set
Actual Time 6:34 AM PST 4:29 PM PST
Civil Twilight 6:02 AM PST 5:01 PM PST
Nautical Twilight 5:26 AM PST 5:37 PM PST
Astronomical Twilight 4:50 AM PST 6:12 PM PST
Moon 6:44 AM PST (11/3) 4:45 PM PST (11/3)
Length of Visible Light 10h 59m
Length of Day
9h 55m
New Moon, 0% of the Moon is Illuminated
Nov 3
New Moon
Nov 9
First Quarter
Nov 17
Full
Nov 25
Last Quarter
Dec 2
New

Hourly Weather History & Observations

Time (PST) Temp. Windchill Dew Point Humidity Pressure Visibility Wind Dir Wind Speed Gust Speed Precip Events Conditions
12:53 AM 37.0 °F 26.4 °F 28.9 °F 73% 29.88 in 10.0 mi WSW 20.7 mph 33.4 mph N/A   Overcast
1:53 AM 37.0 °F 26.7 °F 28.0 °F 70% 29.88 in 10.0 mi WSW 19.6 mph 29.9 mph N/A   Overcast
1:06 AM 37.4 °F 27.2 °F 28.4 °F 70% 29.86 in 10.0 mi WSW 19.6 mph 27.6 mph N/A   Overcast
1:29 AM 35.6 °F 24.8 °F 28.4 °F 75% 29.85 in 10.0 mi WSW 19.6 mph 34.5 mph N/A   Overcast
1:53 AM 36.0 °F 26.0 °F 28.9 °F 76% 29.88 in 10.0 mi WSW 17.3 mph 28.8 mph N/A   Overcast
2:53 AM 36.0 °F 25.6 °F 28.9 °F 76% 29.90 in 10.0 mi WSW 18.4 mph 25.3 mph N/A   Overcast
3:25 AM 35.6 °F 28.0 °F 28.4 °F 75% 29.87 in 10.0 mi WSW 10.4 mph 21.9 mph N/A   Overcast
3:53 AM 36.0 °F 27.1 °F 28.9 °F 76% 29.91 in 10.0 mi WSW 13.8 mph 25.3 mph N/A   Overcast
4:53 AM 36.0 °F 28.0 °F 28.9 °F 76% 29.92 in 8.0 mi WSW 11.5 mph - 0.00 in Snow Light Snow
5:53 AM 35.1 °F 26.9 °F 30.9 °F 85% 29.93 in 7.0 mi SW 11.5 mph - 0.00 in Snow Light Snow
6:11 AM 35.6 °F 25.2 °F 30.2 °F 81% 29.88 in 10.0 mi WSW 18.4 mph - 0.00 in   Overcast
6:53 AM 35.1 °F 25.9 °F 30.0 °F 82% 29.94 in 10.0 mi WSW 13.8 mph 21.9 mph 0.00 in   Overcast
7:32 AM 35.6 °F 26.6 °F 30.2 °F 81% 29.91 in 9.0 mi WSW 13.8 mph - N/A   Overcast
7:53 AM 35.1 °F 26.4 °F 30.9 °F 85% 29.96 in 5.0 mi WSW 12.7 mph - 0.00 in Snow Light Snow
8:53 AM 36.0 °F 26.7 °F 30.9 °F 82% 29.97 in 9.0 mi WSW 15.0 mph - 0.00 in Snow Light Snow
9:36 AM 35.6 °F 26.2 °F 32.0 °F 87% 29.93 in 8.0 mi WSW 15.0 mph 20.7 mph 0.00 in   Overcast
9:53 AM 36.0 °F 27.5 °F 32.0 °F 86% 29.99 in 10.0 mi WSW 12.7 mph - 0.00 in   Overcast
10:12 AM 37.4 °F 28.5 °F 33.8 °F 87% 29.94 in 9.0 mi WSW 15.0 mph - N/A   Overcast
10:39 AM 37.4 °F 29.3 °F 32.0 °F 81% 29.95 in 10.0 mi WSW 12.7 mph 20.7 mph 0.00 in   Overcast
10:51 AM 37.4 °F 29.3 °F 32.0 °F 81% 29.95 in 10.0 mi WSW 12.7 mph 20.7 mph 0.00 in   Overcast
10:53 AM 37.9 °F 28.9 °F 32.0 °F 79% 29.99 in 10.0 mi West 16.1 mph 20.7 mph 0.00 in   Overcast
11:13 AM 37.4 °F 26.6 °F 32.0 °F 81% 29.94 in 10.0 mi WSW 21.9 mph 27.6 mph N/A   Scattered Clouds
11:53 AM 37.9 °F 30.5 °F 33.1 °F 83% 29.99 in 10.0 mi WSW 11.5 mph - N/A   Overcast
12:00 PM 39.2 °F 32.0 °F 33.8 °F 81% 29.94 in 10.0 mi West 11.5 mph 21.9 mph 0.00 in Rain Light Rain
12:29 PM 39.2 °F 31.6 °F 33.8 °F 81% 29.94 in 10.0 mi West 12.7 mph - 0.00 in   Overcast
12:53 PM 37.0 °F 29.8 °F 33.1 °F 86% 30.00 in 4.0 mi WSW 10.4 mph 20.7 mph 0.00 in Rain Light Rain
1:31 PM 37.4 °F 28.5 °F 33.8 °F 87% 29.95 in 10.0 mi WSW 15.0 mph 19.6 mph 0.00 in Rain Light Rain
1:53 PM 37.9 °F 30.5 °F 33.1 °F 83% 30.01 in 10.0 mi WSW 11.5 mph - 0.00 in Rain Light Rain
2:53 PM 39.0 °F 31.8 °F 30.9 °F 73% 30.01 in 10.0 mi WSW 11.5 mph - 0.04 in   Overcast
3:33 PM 35.6 °F 29.9 °F 32.0 °F 87% 29.97 in 10.0 mi North 6.9 mph - N/A   Overcast
3:53 PM 36.0 °F 32.1 °F 32.0 °F 86% 30.03 in 10.0 mi West 4.6 mph - N/A   Overcast
4:00 PM 35.6 °F - 32.0 °F 87% 29.98 in 10.0 mi Calm Calm - N/A   Overcast
4:09 PM 35.6 °F - 30.2 °F 81% 29.98 in 10.0 mi Calm Calm - N/A   Overcast
4:16 PM 35.6 °F 31.7 °F 30.2 °F 81% 29.98 in 10.0 mi WSW 4.6 mph - N/A   Overcast
4:53 PM 34.0 °F 27.2 °F 30.0 °F 85% 30.03 in 10.0 mi SW 8.1 mph - N/A   Overcast
5:53 PM 34.0 °F 28.0 °F 30.9 °F 89% 30.03 in 5.0 mi SSW 6.9 mph - 0.00 in Snow Light Snow
6:47 PM 33.8 °F 30.8 °F 30.2 °F 87% 29.99 in 2.0 mi South 3.5 mph - 0.00 in Snow Light Snow
6:53 PM 33.1 °F 26.9 °F 30.9 °F 92% 30.05 in 2.0 mi SW 6.9 mph - 0.00 in Snow Light Snow
7:00 PM 33.8 °F 25.8 °F 30.2 °F 87% 29.99 in 4.0 mi SSW 10.4 mph - 0.00 in Snow Light Snow
7:11 PM 33.8 °F 26.4 °F 30.2 °F 87% 29.98 in 2.0 mi South 9.2 mph - 0.01 in Snow Light Snow
7:13 PM 33.8 °F 25.8 °F 30.2 °F 87% 29.97 in 2.0 mi SSW 10.4 mph - 0.01 in Snow Light Snow
7:16 PM 33.8 °F 25.8 °F 30.2 °F 87% 29.98 in 2.0 mi SSW 10.4 mph - 0.01 in Snow Light Snow
7:20 PM 33.8 °F 26.4 °F 30.2 °F 87% 29.98 in 4.0 mi SSW 9.2 mph - 0.01 in Snow Light Snow
7:30 PM 33.8 °F 25.8 °F 30.2 °F 87% 29.98 in 10.0 mi South 10.4 mph - 0.01 in   Overcast
7:53 PM 33.1 °F 26.9 °F 30.9 °F 92% 30.04 in 10.0 mi SSW 6.9 mph - 0.01 in   Overcast
8:12 PM 33.8 °F 27.0 °F 30.2 °F 87% 30.00 in 2.0 mi NW 8.1 mph - 0.00 in Snow Light Snow
8:15 PM 33.8 °F 25.3 °F 30.2 °F 87% 30.00 in 0.8 mi NW 11.5 mph - 0.01 in Snow Light Snow
8:23 PM 33.8 °F 30.8 °F 30.2 °F 87% 30.00 in 0.5 mi NW 3.5 mph - 0.04 in Fog , Snow Snow
8:43 PM 32.0 °F - 30.2 °F 93% 30.00 in 1.0 mi Calm Calm - 0.06 in Snow Light Snow
8:51 PM 33.8 °F - 30.2 °F 87% 30.00 in 1.5 mi Calm Calm - 0.07 in Snow Light Snow
8:53 PM 33.1 °F 30.0 °F 30.9 °F 92% 30.06 in 1.2 mi South 3.5 mph - 0.07 in Snow Light Snow
9:02 PM 33.8 °F - 32.0 °F 93% 30.00 in 0.8 mi Calm Calm - 0.01 in Snow Light Snow
9:14 PM 33.8 °F 27.7 °F 30.2 °F 87% 29.99 in 1.0 mi South 6.9 mph - 0.02 in Snow Light Snow
9:25 PM 33.8 °F 27.7 °F 30.2 °F 87% 30.00 in 2.0 mi South 6.9 mph - 0.02 in Snow Light Snow
9:34 PM 32.0 °F 25.6 °F 30.2 °F 93% 30.00 in 5.0 mi South 6.9 mph - 0.02 in Snow Light Snow
9:44 PM 32.0 °F 25.6 °F 30.2 °F 93% 30.00 in 9.0 mi South 6.9 mph - 0.02 in   Overcast
9:47 PM 32.0 °F 25.6 °F 30.2 °F 93% 30.00 in 9.0 mi South 6.9 mph - 0.02 in   Overcast
9:53 PM 32.0 °F 26.4 °F 30.9 °F 96% 30.06 in 10.0 mi South 5.8 mph - 0.02 in   Overcast
10:31 PM 32.0 °F 26.4 °F 30.2 °F 93% 29.99 in 10.0 mi SSW 5.8 mph - N/A   Mostly Cloudy
10:45 PM 30.2 °F 25.4 °F 28.4 °F 93% 29.99 in 10.0 mi South 4.6 mph - N/A   Mostly Cloudy
10:53 PM 30.0 °F - 28.0 °F 92% 30.05 in 10.0 mi Calm Calm - N/A   Mostly Cloudy